Home > Weather > Demmin > Past weeks

Flag for Germany Weather for the Past 2 Weeks in Demmin, Mecklenburg-Western Pomerania, Germany

Now
50 °F

Broken clouds.


Feels Like: 48 °F
Forecast: 44 / 60 °F
Wind: 6 mph from Southeast

Location: Laage

Current Time: Apr 29, 2016 at 10:09:29 PM

Latest Report: Apr 29, 2016 at 9:20 PM


Visibility: N/A

Pressure: 30.04 "Hg

Humidity: 54%

Dew Point: 34 °F

Location of DemminLocation

Historic Weather in Demmin — Graph

°F

Demmin Temperature Yesterday

Maximum temperature yesterday: 48 °F (at 3:20 PM)
Minimum temperature yesterday: 37 °F (at 3:20 AM)
Average temperature yesterday: 41 °F

High & Low Weather Summary for the Past Weeks

 TemperatureHumidityPressure
High59 °F (Apr 16, 2:20 PM)100% (Apr 15, 3:20 AM)30.36 "Hg (Apr 15, 3:20 AM)
Low32 °F (Apr 25, 3:20 AM)27% (Apr 23, 6:20 PM)29.42 "Hg (Apr 26, 3:20 AM)
Average44 °F75%29.82 "Hg
* Reported Apr 14 8:20 PM — Apr 29 8:20 PM, Demmin, Weather by CustomWeather, © 2016

Note: Actual official high and low records may vary slightly from our data, if they occured in-between our weather recording intervals... More about our weather records

Advertising

Demmin Weather History for the Previous 24 Hours

Scroll right to see more
 ConditionsComfort  
Time TempWeatherWind HumidityBarometerVisibility
8:20 PM
Fri, Apr 29
54 °FBroken clouds.7 mph44%30.04 "HgN/A
7:20 PM54 °FBroken clouds.8 mph44%30.01 "HgN/A
6:20 PM54 °FBroken clouds.13 mph44%30.01 "HgN/A
5:20 PM55 °FBroken clouds.15 mph41%30.01 "HgN/A
4:20 PM55 °FBroken clouds.18 mph41%30.01 "HgN/A
3:20 PM54 °FCool.N/A44%30.01 "Hg12 mi
2:20 PM54 °FBroken clouds.12 mph47%30.01 "HgN/A
1:20 PM54 °FBroken clouds.14 mph47%30.01 "HgN/A
12:20 PM52 °FBroken clouds.13 mph54%30.01 "HgN/A
11:20 AM52 °FBroken clouds.13 mph50%30.01 "HgN/A
10:20 AM48 °FBroken clouds.8 mph62%30.01 "HgN/A
9:20 AM46 °FPartly sunny.7 mph66%30.01 "HgN/A
8:20 AM43 °FBroken clouds.7 mph76%30.01 "HgN/A
7:20 AM37 °FScattered clouds.5 mph87%30.01 "HgN/A
6:20 AM36 °FPassing clouds.5 mph93%29.98 "HgN/A
5:20 AM36 °FPassing clouds.3 mph93%29.98 "HgN/A
4:20 AM36 °FPassing clouds.5 mph93%29.98 "HgN/A
3:20 AM36 °FPassing clouds.6 mph93%29.98 "HgN/A
2:20 AM36 °FPassing clouds.5 mph93%29.98 "HgN/A
1:20 AM36 °FPassing clouds.5 mph93%29.98 "HgN/A
12:20 AM37 °FChilly.6 mph93%29.95 "HgN/A
11:20 PM
Thu, Apr 28
37 °FPassing clouds.5 mph93%29.95 "HgN/A
10:20 PM39 °FPassing clouds.5 mph87%29.95 "HgN/A
Weather by CustomWeather, © 2016

See weather overviewHow to use our weather pages